| time (UTC) | temp F | wind direction | speed MPH | gust MPH | rain 1hr in | rain 24hr in | rain mn in | humidity % | barometer mb |
| 20260504234522 | 75 | 213 | 6.0 | 17.0 | 0.00 | 0.00 | 0.00 | 50 | 998.2 |
| 20260504234454 | 75 | 213 | 6.0 | 16.0 | 0.00 | 0.00 | 0.00 | 50 | 998.2 |
| 20260504234001 | 76 | 214 | 6.0 | 15.0 | 0.00 | 0.00 | 0.00 | 50 | 998.3 |
| 20260504233954 | 76 | 216 | 5.0 | 13.0 | 0.00 | 0.00 | 0.00 | 50 | 998.3 |
| 20260504233523 | 76 | 225 | 4.0 | 10.0 | 0.00 | 0.00 | 0.00 | 51 | 998.2 |
| 20260504233454 | 76 | 223 | 4.0 | 10.0 | 0.00 | 0.00 | 0.00 | 51 | 998.2 |
| 20260504233022 | 76 | 222 | 4.0 | 8.0 | 0.00 | 0.00 | 0.00 | 51 | 998.1 |
| 20260504232954 | 76 | 218 | 4.0 | 8.0 | 0.00 | 0.00 | 0.00 | 50 | 998.1 |
| 20260504232503 | 76 | 209 | 5.0 | 9.0 | 0.00 | 0.00 | 0.00 | 50 | 998.1 |
| 20260504232454 | 76 | 207 | 4.0 | 10.0 | 0.00 | 0.00 | 0.00 | 49 | 998.2 |
| 20260504232001 | 76 | 214 | 5.0 | 13.0 | 0.00 | 0.00 | 0.00 | 49 | 998.2 |
| 20260504231954 | 76 | 213 | 6.0 | 13.0 | 0.00 | 0.00 | 0.00 | 49 | 998.2 |
| 20260504231501 | 76 | 212 | 6.0 | 20.0 | 0.00 | 0.00 | 0.00 | 49 | 998.2 |
| 20260504231453 | 76 | 214 | 7.0 | 20.0 | 0.00 | 0.00 | 0.00 | 48 | 998.1 |
| 20260504231022 | 76 | 211 | 7.0 | 20.0 | 0.00 | 0.00 | 0.00 | 48 | 998.2 |
| 20260504230953 | 76 | 212 | 6.0 | 20.0 | 0.00 | 0.00 | 0.00 | 48 | 998.2 |
| 20260504230501 | 77 | 224 | 6.0 | 14.0 | 0.00 | 0.00 | 0.00 | 48 | 998.2 |
| 20260504230453 | 77 | 227 | 6.0 | 14.0 | 0.00 | 0.00 | 0.00 | 47 | 998.1 |
| 20260504230001 | 77 | 232 | 6.0 | 14.0 | 0.00 | 0.00 | 0.00 | 47 | 998.1 |
| 20260504225953 | 77 | 232 | 5.0 | 14.0 | 0.00 | 0.00 | 0.00 | 47 | 998.1 |
| 20260504225522 | 77 | 229 | 5.0 | 17.0 | 0.00 | 0.00 | 0.00 | 47 | 998.2 |
| 20260504225453 | 77 | 228 | 5.0 | 17.0 | 0.00 | 0.00 | 0.00 | 48 | 998.2 |
| 20260504225002 | 77 | 229 | 5.0 | 17.0 | 0.00 | 0.00 | 0.00 | 48 | 998.3 |
| 20260504224953 | 77 | 229 | 5.0 | 17.0 | 0.00 | 0.00 | 0.00 | 48 | 998.3 |
| 20260504224501 | 77 | 225 | 5.0 | 19.0 | 0.00 | 0.00 | 0.00 | 47 | 998.3 |
| 20260504224453 | 77 | 229 | 6.0 | 19.0 | 0.00 | 0.00 | 0.00 | 47 | 998.3 |
| 20260504224001 | 77 | 231 | 7.0 | 21.0 | 0.00 | 0.00 | 0.00 | 46 | 998.5 |
| 20260504223953 | 77 | 232 | 7.0 | 21.0 | 0.00 | 0.00 | 0.00 | 46 | 998.5 |
| 20260504223501 | 77 | 231 | 7.0 | 21.0 | 0.00 | 0.00 | 0.00 | 46 | 998.5 |
| 20260504223453 | 77 | 227 | 7.0 | 21.0 | 0.00 | 0.00 | 0.00 | 45 | 998.5 |
| 20260504223002 | 77 | 222 | 7.0 | 16.0 | 0.00 | 0.00 | 0.00 | 46 | 998.7 |
| 20260504222953 | 77 | 219 | 7.0 | 17.0 | 0.00 | 0.00 | 0.00 | 45 | 998.7 |
| 20260504222501 | 77 | 215 | 7.0 | 18.0 | 0.00 | 0.00 | 0.00 | 45 | 998.8 |
| 20260504222453 | 77 | 215 | 7.0 | 18.0 | 0.00 | 0.00 | 0.00 | 45 | 998.8 |
| 20260504222001 | 77 | 208 | 6.0 | 18.0 | 0.00 | 0.00 | 0.00 | 45 | 998.9 |
| 20260504221953 | 77 | 207 | 5.0 | 18.0 | 0.00 | 0.00 | 0.00 | 45 | 998.8 |
| 20260504221501 | 76 | 202 | 5.0 | 13.0 | 0.00 | 0.00 | 0.00 | 47 | 998.9 |
| 20260504221453 | 76 | 200 | 5.0 | 11.0 | 0.00 | 0.00 | 0.00 | 46 | 998.9 |
| 20260504221002 | 76 | 196 | 5.0 | 11.0 | 0.00 | 0.00 | 0.00 | 45 | 999.0 |
| 20260504220952 | 76 | 194 | 5.0 | 11.0 | 0.00 | 0.00 | 0.00 | 45 | 999.0 |
| 20260504220501 | 76 | 189 | 5.0 | 11.0 | 0.00 | 0.00 | 0.00 | 45 | 999.0 |
| 20260504220452 | 76 | 190 | 5.0 | 12.0 | 0.00 | 0.00 | 0.00 | 45 | 999.0 |
| 20260504220001 | 77 | 194 | 5.0 | 16.0 | 0.00 | 0.00 | 0.00 | 45 | 999.1 |
| 20260504215952 | 77 | 196 | 5.0 | 16.0 | 0.00 | 0.00 | 0.00 | 44 | 999.0 |
| 20260504215522 | 77 | 209 | 6.0 | 16.0 | 0.00 | 0.00 | 0.00 | 44 | 999.0 |
| 20260504215452 | 77 | 208 | 6.0 | 16.0 | 0.00 | 0.00 | 0.00 | 44 | 998.9 |
| 20260504215001 | 77 | 210 | 7.0 | 16.0 | 0.00 | 0.00 | 0.00 | 43 | 999.0 |
| 20260504214952 | 77 | 209 | 7.0 | 16.0 | 0.00 | 0.00 | 0.00 | 43 | 999.1 |
| 20260504214501 | 76 | 204 | 6.0 | 16.0 | 0.00 | 0.00 | 0.00 | 42 | 999.2 |
| 20260504214452 | 77 | 207 | 6.0 | 16.0 | 0.00 | 0.00 | 0.00 | 42 | 999.2 |
| 20260504214001 | 77 | 211 | 6.0 | 20.0 | 0.00 | 0.00 | 0.00 | 43 | 999.5 |
| 20260504213952 | 77 | 217 | 7.0 | 20.0 | 0.00 | 0.00 | 0.00 | 42 | 999.3 |
| 20260504213501 | 77 | 223 | 8.0 | 20.0 | 0.00 | 0.00 | 0.00 | 40 | 999.5 |
| 20260504213452 | 77 | 223 | 7.0 | 20.0 | 0.00 | 0.00 | 0.00 | 40 | 999.5 |
| 20260504213002 | 77 | 221 | 6.0 | 18.0 | 0.00 | 0.00 | 0.00 | 40 | 999.6 |
| 20260504212952 | 77 | 215 | 6.0 | 12.0 | 0.00 | 0.00 | 0.00 | 41 | 999.6 |
| 20260504212501 | 76 | 211 | 7.0 | 21.0 | 0.00 | 0.00 | 0.00 | 42 | 999.5 |
| 20260504212452 | 76 | 211 | 7.0 | 21.0 | 0.00 | 0.00 | 0.00 | 41 | 999.5 |
| 20260504212001 | 76 | 214 | 8.0 | 21.0 | 0.00 | 0.00 | 0.00 | 41 | 999.6 |
| 20260504211952 | 76 | 213 | 7.0 | 21.0 | 0.00 | 0.00 | 0.00 | 40 | 999.6 |
| 20260504211502 | 76 | 210 | 6.0 | 14.0 | 0.00 | 0.00 | 0.00 | 40 | 999.7 |
| 20260504211452 | 76 | 207 | 6.0 | 14.0 | 0.00 | 0.00 | 0.00 | 40 | 999.7 |
| 20260504211001 | 76 | 207 | 7.0 | 15.0 | 0.00 | 0.00 | 0.00 | 40 | 999.6 |
| 20260504210952 | 76 | 209 | 8.0 | 15.0 | 0.00 | 0.00 | 0.00 | 40 | 999.6 |
| 20260504210522 | 76 | 203 | 9.0 | 17.0 | 0.00 | 0.00 | 0.00 | 39 | 999.7 |
| 20260504210452 | 76 | 205 | 9.0 | 17.0 | 0.00 | 0.00 | 0.00 | 38 | 999.7 |
| 20260504210001 | 77 | 205 | 8.0 | 17.0 | 0.00 | 0.00 | 0.00 | 38 | 999.7 |
| 20260504205952 | 77 | 209 | 8.0 | 18.0 | 0.00 | 0.00 | 0.00 | 37 | 999.6 |
| 20260504205501 | 77 | 220 | 8.0 | 18.0 | 0.00 | 0.00 | 0.00 | 37 | 999.7 |
| 20260504205451 | 77 | 220 | 7.0 | 18.0 | 0.00 | 0.00 | 0.00 | 38 | 999.8 |
| 20260504205001 | 77 | 218 | 8.0 | 18.0 | 0.00 | 0.00 | 0.00 | 37 | 999.7 |
| 20260504204951 | 77 | 210 | 8.0 | 17.0 | 0.00 | 0.00 | 0.00 | 37 | 999.9 |
| 20260504204502 | 77 | 198 | 7.0 | 13.0 | 0.00 | 0.00 | 0.00 | 39 | 999.8 |
| 20260504204451 | 77 | 196 | 7.0 | 13.0 | 0.00 | 0.00 | 0.00 | 39 | 999.8 |
| 20260504204001 | 78 | 190 | 6.0 | 13.0 | 0.00 | 0.00 | 0.00 | 38 | 999.8 |
| 20260504203951 | 78 | 189 | 6.0 | 13.0 | 0.00 | 0.00 | 0.00 | 38 | 999.8 |
| 20260504203501 | 78 | 192 | 5.0 | 13.0 | 0.00 | 0.00 | 0.00 | 38 | 999.8 |
| 20260504203451 | 78 | 195 | 5.0 | 13.0 | 0.00 | 0.00 | 0.00 | 39 | 999.7 |
| 20260504203001 | 78 | 203 | 6.0 | 16.0 | 0.00 | 0.00 | 0.00 | 38 | 999.8 |
| 20260504202951 | 78 | 205 | 7.0 | 16.0 | 0.00 | 0.00 | 0.00 | 38 | 999.8 |
| 20260504202501 | 78 | 209 | 7.0 | 17.0 | 0.00 | 0.00 | 0.00 | 38 | 999.9 |
| 20260504202451 | 78 | 210 | 7.0 | 17.0 | 0.00 | 0.00 | 0.00 | 39 | 999.8 |
| 20260504202002 | 78 | 207 | 6.0 | 17.0 | 0.00 | 0.00 | 0.00 | 38 | 999.9 |
| 20260504201951 | 78 | 209 | 7.0 | 17.0 | 0.00 | 0.00 | 0.00 | 37 | 999.7 |
| 20260504201523 | 78 | 215 | 7.0 | 18.0 | 0.00 | 0.00 | 0.00 | 37 | 999.7 |
| 20260504201451 | 78 | 218 | 7.0 | 18.0 | 0.00 | 0.00 | 0.00 | 37 | 999.8 |
| 20260504201001 | 78 | 220 | 8.0 | 18.0 | 0.00 | 0.00 | 0.00 | 35 | 999.9 |
| 20260504200951 | 78 | 220 | 8.0 | 18.0 | 0.00 | 0.00 | 0.00 | 34 | 999.9 |
| 20260504200502 | 78 | 228 | 9.0 | 20.0 | 0.00 | 0.00 | 0.00 | 34 | 1000.0 |
| 20260504200451 | 78 | 225 | 9.0 | 20.0 | 0.00 | 0.00 | 0.00 | 34 | 1000.0 |
| 20260504200002 | 78 | 228 | 9.0 | 20.0 | 0.00 | 0.00 | 0.00 | 33 | 1000.0 |
| 20260504195951 | 78 | 227 | 8.0 | 20.0 | 0.00 | 0.00 | 0.00 | 34 | 1000.0 |
| 20260504195523 | 78 | 213 | 8.0 | 20.0 | 0.00 | 0.00 | 0.00 | 33 | 999.9 |
| 20260504195451 | 78 | 214 | 8.0 | 20.0 | 0.00 | 0.00 | 0.00 | 34 | 999.9 |
| 20260504195001 | 78 | 211 | 9.0 | 20.0 | 0.00 | 0.00 | 0.00 | 34 | 1000.1 |
| 20260504194950 | 78 | 214 | 9.0 | 20.0 | 0.00 | 0.00 | 0.00 | 34 | 1000.1 |
| 20260504194502 | 78 | 215 | 9.0 | 20.0 | 0.00 | 0.00 | 0.00 | 33 | 1000.0 |
| 20260504194450 | 78 | 213 | 9.0 | 20.0 | 0.00 | 0.00 | 0.00 | 32 | 1000.1 |
| 20260504194001 | 78 | 214 | 9.0 | 20.0 | 0.00 | 0.00 | 0.00 | 34 | 999.9 |
| 20260504193950 | 78 | 214 | 9.0 | 20.0 | 0.00 | 0.00 | 0.00 | 34 | 1000.1 |
| 20260504193501 | 79 | 217 | 8.0 | 17.0 | 0.00 | 0.00 | 0.00 | 33 | 1000.1 |
| 20260504193450 | 79 | 218 | 7.0 | 17.0 | 0.00 | 0.00 | 0.00 | 32 | 1000.2 |
| 20260504193023 | 79 | 215 | 7.0 | 16.0 | 0.00 | 0.00 | 0.00 | 33 | 1000.3 |
| 20260504192950 | 79 | 212 | 7.0 | 16.0 | 0.00 | 0.00 | 0.00 | 33 | 1000.3 |
| 20260504192501 | 79 | 226 | 9.0 | 23.0 | 0.00 | 0.00 | 0.00 | 32 | 1000.3 |
| 20260504192450 | 79 | 229 | 10.0 | 23.0 | 0.00 | 0.00 | 0.00 | 31 | 1000.4 |
| 20260504192001 | 79 | 236 | 9.0 | 23.0 | 0.00 | 0.00 | 0.00 | 31 | 1000.3 |
| 20260504191950 | 79 | 238 | 8.0 | 23.0 | 0.00 | 0.00 | 0.00 | 31 | 1000.5 |
| 20260504191502 | 79 | 231 | 7.0 | 18.0 | 0.00 | 0.00 | 0.00 | 32 | 1000.5 |
| 20260504191450 | 79 | 226 | 6.0 | 18.0 | 0.00 | 0.00 | 0.00 | 33 | 1000.5 |
| 20260504191003 | 78 | 220 | 7.0 | 17.0 | 0.00 | 0.00 | 0.00 | 35 | 1000.5 |
| 20260504190950 | 78 | 222 | 8.0 | 17.0 | 0.00 | 0.00 | 0.00 | 34 | 1000.5 |
| 20260504190501 | 78 | 221 | 8.0 | 18.0 | 0.00 | 0.00 | 0.00 | 32 | 1000.5 |
| 20260504190450 | 78 | 223 | 8.0 | 18.0 | 0.00 | 0.00 | 0.00 | 33 | 1000.6 |
| 20260504190002 | 78 | 221 | 8.0 | 19.0 | 0.00 | 0.00 | 0.00 | 34 | 1000.6 |
| 20260504185950 | 78 | 219 | 8.0 | 19.0 | 0.00 | 0.00 | 0.00 | 34 | 1000.8 |
| 20260504185523 | 78 | 211 | 9.0 | 20.0 | 0.00 | 0.00 | 0.00 | 34 | 1000.8 |
| 20260504185450 | 77 | 207 | 9.0 | 21.0 | 0.00 | 0.00 | 0.00 | 33 | 1000.9 |
| 20260504185022 | 77 | 207 | 10.0 | 21.0 | 0.00 | 0.00 | 0.00 | 33 | 1000.9 |
| 20260504184950 | 78 | 206 | 9.0 | 21.0 | 0.00 | 0.00 | 0.00 | 33 | 1000.8 |
| 20260504184501 | 78 | 212 | 8.0 | 20.0 | 0.00 | 0.00 | 0.00 | 35 | 1000.7 |
| 20260504184450 | 78 | 215 | 8.0 | 20.0 | 0.00 | 0.00 | 0.00 | 35 | 1000.7 |
| 20260504184001 | 79 | 224 | 7.0 | 20.0 | 0.00 | 0.00 | 0.00 | 37 | 1000.8 |
| 20260504183950 | 78 | 232 | 7.0 | 20.0 | 0.00 | 0.00 | 0.00 | 36 | 1000.8 |
| 20260504183502 | 78 | 229 | 7.0 | 17.0 | 0.00 | 0.00 | 0.00 | 35 | 1001.0 |
| 20260504183449 | 78 | 227 | 6.0 | 17.0 | 0.00 | 0.00 | 0.00 | 33 | 1001.0 |
| 20260504183001 | 78 | 223 | 7.0 | 17.0 | 0.00 | 0.00 | 0.00 | 36 | 1001.0 |
| 20260504182949 | 78 | 219 | 7.0 | 17.0 | 0.00 | 0.00 | 0.00 | 35 | 1001.0 |
| 20260504182501 | 77 | 211 | 7.0 | 17.0 | 0.00 | 0.00 | 0.00 | 40 | 1001.0 |
| 20260504182449 | 77 | 204 | 6.0 | 17.0 | 0.00 | 0.00 | 0.00 | 41 | 1001.0 |
| 20260504182002 | 76 | 189 | 6.0 | 14.0 | 0.00 | 0.00 | 0.00 | 44 | 1001.1 |
| 20260504181949 | 76 | 185 | 5.0 | 14.0 | 0.00 | 0.00 | 0.00 | 44 | 1001.2 |
| 20260504181503 | 76 | 174 | 6.0 | 14.0 | 0.00 | 0.00 | 0.00 | 45 | 1001.0 |
| 20260504181449 | 76 | 177 | 6.0 | 14.0 | 0.00 | 0.00 | 0.00 | 45 | 1001.1 |
| 20260504181001 | 76 | 173 | 6.0 | 14.0 | 0.00 | 0.00 | 0.00 | 45 | 1001.2 |
| 20260504180949 | 76 | 172 | 6.0 | 14.0 | 0.00 | 0.00 | 0.00 | 44 | 1001.2 |
| 20260504180501 | 76 | 173 | 6.0 | 12.0 | 0.00 | 0.00 | 0.00 | 45 | 1001.2 |
| 20260504180449 | 76 | 173 | 5.0 | 12.0 | 0.00 | 0.00 | 0.00 | 45 | 1001.3 |
| 20260504180001 | 76 | 170 | 5.0 | 11.0 | 0.00 | 0.00 | 0.00 | 46 | 1001.4 |
| 20260504175949 | 76 | 172 | 6.0 | 15.0 | 0.00 | 0.00 | 0.00 | 46 | 1001.4 |
| 20260504175502 | 76 | 181 | 6.0 | 15.0 | 0.00 | 0.00 | 0.00 | 45 | 1001.5 |
| 20260504175449 | 76 | 184 | 6.0 | 15.0 | 0.00 | 0.00 | 0.00 | 45 | 1001.5 |
| 20260504175022 | 75 | 186 | 6.0 | 15.0 | 0.00 | 0.00 | 0.00 | 46 | 1001.6 |
| 20260504174949 | 75 | 186 | 6.0 | 16.0 | 0.00 | 0.00 | 0.00 | 44 | 1001.6 |
| 20260504174502 | 75 | 196 | 6.0 | 18.0 | 0.00 | 0.00 | 0.00 | 47 | 1001.7 |
| 20260504174449 | 75 | 198 | 7.0 | 18.0 | 0.00 | 0.00 | 0.00 | 47 | 1001.6 |
| 20260504174002 | 75 | 200 | 8.0 | 18.0 | 0.00 | 0.00 | 0.00 | 46 | 1001.8 |
| 20260504173949 | 75 | 202 | 7.0 | 18.0 | 0.00 | 0.00 | 0.00 | 45 | 1001.8 |
| 20260504173502 | 75 | 206 | 7.0 | 18.0 | 0.00 | 0.00 | 0.00 | 43 | 1001.8 |
| 20260504173449 | 76 | 204 | 6.0 | 17.0 | 0.00 | 0.00 | 0.00 | 41 | 1001.8 |
| 20260504173001 | 75 | 213 | 6.0 | 12.0 | 0.00 | 0.00 | 0.00 | 45 | 1001.9 |
| 20260504172949 | 75 | 212 | 6.0 | 12.0 | 0.00 | 0.00 | 0.00 | 44 | 1001.9 |
| 20260504172502 | 75 | 204 | 6.0 | 12.0 | 0.00 | 0.00 | 0.00 | 44 | 1002.0 |
| 20260504172448 | 75 | 206 | 6.0 | 12.0 | 0.00 | 0.00 | 0.00 | 44 | 1002.0 |
| 20260504172023 | 75 | 202 | 5.0 | 21.0 | 0.00 | 0.00 | 0.00 | 45 | 1002.1 |
| 20260504171948 | 75 | 202 | 6.0 | 21.0 | 0.00 | 0.00 | 0.00 | 46 | 1002.1 |
| 20260504171522 | 74 | 201 | 6.0 | 21.0 | 0.00 | 0.00 | 0.00 | 46 | 1002.1 |
| 20260504171448 | 74 | 202 | 7.0 | 21.0 | 0.00 | 0.00 | 0.00 | 45 | 1002.1 |
| 20260504171023 | 74 | 206 | 7.0 | 20.0 | 0.00 | 0.00 | 0.00 | 44 | 1002.3 |
| 20260504170948 | 74 | 207 | 6.0 | 20.0 | 0.00 | 0.00 | 0.00 | 45 | 1002.3 |
| 20260504170502 | 74 | 210 | 6.0 | 13.0 | 0.00 | 0.00 | 0.00 | 46 | 1002.2 |
| 20260504170448 | 74 | 209 | 6.0 | 13.0 | 0.00 | 0.00 | 0.00 | 46 | 1002.2 |
| 20260504151023 | 65 | 212 | 7.0 | 14.0 | 0.00 | 0.00 | 0.00 | 57 | 1003.4 |
| 20260504150947 | 65 | 212 | 7.0 | 14.0 | 0.00 | 0.00 | 0.00 | 57 | 1003.6 |
| 20260504150502 | 65 | 204 | 7.0 | 14.0 | 0.00 | 0.00 | 0.00 | 57 | 1003.6 |
| 20260504150447 | 65 | 204 | 6.0 | 14.0 | 0.00 | 0.00 | 0.00 | 56 | 1003.6 |
| 20260504141023 | 62 | 222 | 6.0 | 13.0 | 0.00 | 0.00 | 0.00 | 62 | 1003.8 |
| 20260504140946 | 62 | 220 | 5.0 | 13.0 | 0.00 | 0.00 | 0.00 | 62 | 1003.7 |
| 20260504140502 | 62 | 220 | 5.0 | 12.0 | 0.00 | 0.00 | 0.00 | 61 | 1003.7 |
| 20260504140446 | 62 | 222 | 5.0 | 12.0 | 0.00 | 0.00 | 0.00 | 61 | 1003.7 |
| 20260504130502 | 58 | 221 | 6.0 | 12.0 | 0.00 | 0.00 | 0.00 | 65 | 1004.4 |
| 20260504130445 | 58 | 220 | 6.0 | 12.0 | 0.00 | 0.00 | 0.00 | 65 | 1004.4 |
| 20260504110503 | 52 | 225 | 5.0 | 9.0 | 0.00 | 0.00 | 0.00 | 73 | 1004.7 |
| 20260504110444 | 51 | 226 | 5.0 | 9.0 | 0.00 | 0.00 | 0.00 | 73 | 1004.8 |
| 20260504100503 | 51 | 231 | 3.0 | 11.0 | 0.00 | 0.00 | 0.00 | 72 | 1004.3 |
| 20260504100443 | 51 | 228 | 4.0 | 11.0 | 0.00 | 0.00 | 0.00 | 72 | 1004.4 |
| 20260504082003 | 51 | 199 | 3.0 | 6.0 | 0.00 | 0.00 | 0.00 | 71 | 1005.0 |
| 20260504081941 | 51 | 198 | 2.0 | 5.0 | 0.00 | 0.00 | 0.00 | 71 | 1005.0 |
| 20260504081503 | 51 | 196 | 2.0 | 5.0 | 0.00 | 0.00 | 0.00 | 70 | 1005.0 |
| 20260504081441 | 51 | 195 | 2.0 | 5.0 | 0.00 | 0.00 | 0.00 | 70 | 1005.1 |
| 20260504081024 | 51 | 197 | 3.0 | 5.0 | 0.00 | 0.00 | 0.00 | 70 | 1005.1 |
| 20260504080941 | 51 | 200 | 3.0 | 5.0 | 0.00 | 0.00 | 0.00 | 70 | 1005.0 |
| 20260504080503 | 51 | 206 | 3.0 | 5.0 | 0.00 | 0.00 | 0.00 | 70 | 1005.1 |
| 20260504080441 | 51 | 208 | 3.0 | 5.0 | 0.00 | 0.00 | 0.00 | 70 | 1005.1 |
| 20260504050503 | 53 | 211 | 4.0 | 12.0 | 0.00 | 0.00 | 0.00 | 69 | 1007.6 |
| 20260504050439 | 53 | 208 | 4.0 | 12.0 | 0.00 | 0.00 | 0.00 | 70 | 1007.6 |
| 20260504050003 | 53 | 207 | 5.0 | 12.0 | 0.00 | 0.00 | 0.00 | 69 | 1007.6 |
| 20260504045939 | 53 | 208 | 5.0 | 12.0 | 0.00 | 0.00 | 0.00 | 69 | 1007.6 |
| 20260504045503 | 53 | 207 | 5.0 | 11.0 | 0.00 | 0.00 | 0.00 | 70 | 1007.6 |
| 20260504045439 | 53 | 209 | 5.0 | 11.0 | 0.00 | 0.00 | 0.00 | 70 | 1007.6 |
| 20260504045003 | 53 | 205 | 5.0 | 11.0 | 0.00 | 0.00 | 0.00 | 69 | 1007.6 |
| 20260504044938 | 53 | 204 | 5.0 | 11.0 | 0.00 | 0.00 | 0.00 | 69 | 1007.7 |
| 20260504044503 | 53 | 198 | 5.0 | 10.0 | 0.00 | 0.00 | 0.00 | 70 | 1007.7 |
| 20260504044438 | 53 | 199 | 5.0 | 10.0 | 0.00 | 0.00 | 0.00 | 70 | 1007.7 |
| 20260504044002 | 53 | 200 | 5.0 | 13.0 | 0.00 | 0.00 | 0.00 | 70 | 1007.8 |
| 20260504043938 | 53 | 199 | 5.0 | 13.0 | 0.00 | 0.00 | 0.00 | 70 | 1007.8 |
| 20260504043503 | 53 | 206 | 5.0 | 13.0 | 0.00 | 0.00 | 0.00 | 70 | 1007.8 |
| 20260504043438 | 53 | 206 | 5.0 | 13.0 | 0.00 | 0.00 | 0.00 | 70 | 1007.8 |
| 20260504043004 | 53 | 205 | 5.0 | 10.0 | 0.00 | 0.00 | 0.00 | 70 | 1007.9 |
| 20260504042938 | 53 | 205 | 6.0 | 15.0 | 0.00 | 0.00 | 0.00 | 70 | 1007.8 |
| 20260504042503 | 53 | 203 | 5.0 | 15.0 | 0.00 | 0.00 | 0.00 | 70 | 1007.8 |
| 20260504042438 | 53 | 201 | 5.0 | 15.0 | 0.00 | 0.00 | 0.00 | 70 | 1007.9 |
| 20260504042003 | 53 | 206 | 6.0 | 15.0 | 0.00 | 0.00 | 0.00 | 70 | 1007.9 |
| 20260504041938 | 53 | 205 | 6.0 | 13.0 | 0.00 | 0.00 | 0.00 | 70 | 1007.8 |
| 20260504041524 | 53 | 202 | 5.0 | 11.0 | 0.00 | 0.00 | 0.00 | 70 | 1008.0 |
| 20260504041438 | 53 | 202 | 5.0 | 11.0 | 0.00 | 0.00 | 0.00 | 70 | 1007.9 |
| 20260504041003 | 53 | 197 | 5.0 | 11.0 | 0.00 | 0.00 | 0.00 | 70 | 1008.0 |
| 20260504040938 | 53 | 197 | 4.0 | 11.0 | 0.00 | 0.00 | 0.00 | 70 | 1008.0 |
| 20260504040503 | 53 | 200 | 5.0 | 12.0 | 0.00 | 0.00 | 0.00 | 69 | 1008.0 |
| 20260504040438 | 53 | 202 | 5.0 | 12.0 | 0.00 | 0.00 | 0.00 | 69 | 1008.1 |
| 20260504040004 | 54 | 206 | 5.0 | 12.0 | 0.00 | 0.00 | 0.00 | 69 | 1008.1 |
| 20260504035938 | 54 | 204 | 6.0 | 16.0 | 0.00 | 0.00 | 0.00 | 69 | 1008.1 |
| 20260504035524 | 54 | 199 | 5.0 | 16.0 | 0.00 | 0.00 | 0.00 | 68 | 1008.2 |
| 20260504035437 | 54 | 199 | 5.0 | 16.0 | 0.00 | 0.00 | 0.00 | 68 | 1008.2 |
| 20260504035003 | 54 | 190 | 4.0 | 16.0 | 0.00 | 0.00 | 0.00 | 67 | 1008.1 |
| 20260504034937 | 54 | 191 | 4.0 | 15.0 | 0.00 | 0.00 | 0.00 | 67 | 1008.2 |
| 20260504034504 | 54 | 195 | 4.0 | 11.0 | 0.00 | 0.00 | 0.00 | 66 | 1008.2 |
| 20260504034437 | 54 | 191 | 4.0 | 11.0 | 0.00 | 0.00 | 0.00 | 65 | 1008.3 |
| 20260504034024 | 54 | 192 | 5.0 | 11.0 | 0.00 | 0.00 | 0.00 | 65 | 1008.4 |
| 20260504033937 | 54 | 195 | 5.0 | 11.0 | 0.00 | 0.00 | 0.00 | 64 | 1008.5 |
| 20260504033524 | 54 | 200 | 5.0 | 10.0 | 0.00 | 0.00 | 0.00 | 63 | 1008.4 |
| 20260504033437 | 54 | 202 | 5.0 | 10.0 | 0.00 | 0.00 | 0.00 | 63 | 1008.4 |
| 20260504033004 | 54 | 206 | 5.0 | 16.0 | 0.00 | 0.00 | 0.00 | 63 | 1008.5 |
| 20260504032937 | 54 | 205 | 5.0 | 16.0 | 0.00 | 0.00 | 0.00 | 63 | 1008.5 |
| 20260504032503 | 54 | 203 | 5.0 | 16.0 | 0.00 | 0.00 | 0.00 | 63 | 1008.4 |
| 20260504032437 | 54 | 203 | 5.0 | 16.0 | 0.00 | 0.00 | 0.00 | 63 | 1008.5 |
| 20260504032003 | 54 | 194 | 4.0 | 11.0 | 0.00 | 0.00 | 0.00 | 63 | 1008.5 |
| 20260504031937 | 54 | 194 | 5.0 | 11.0 | 0.00 | 0.00 | 0.00 | 63 | 1008.5 |
| 20260504031503 | 54 | 192 | 5.0 | 12.0 | 0.00 | 0.00 | 0.00 | 63 | 1008.4 |
| 20260504031437 | 54 | 193 | 5.0 | 12.0 | 0.00 | 0.00 | 0.00 | 63 | 1008.4 |
| 20260504031003 | 54 | 202 | 5.0 | 12.0 | 0.00 | 0.00 | 0.00 | 62 | 1008.5 |
| 20260504030937 | 54 | 202 | 5.0 | 12.0 | 0.00 | 0.00 | 0.00 | 62 | 1008.5 |
| 20260504030503 | 55 | 207 | 5.0 | 10.0 | 0.00 | 0.00 | 0.00 | 62 | 1008.5 |
| 20260504030437 | 55 | 207 | 5.0 | 10.0 | 0.00 | 0.00 | 0.00 | 62 | 1008.5 |
| 20260504030003 | 55 | 212 | 6.0 | 12.0 | 0.00 | 0.00 | 0.00 | 62 | 1008.5 |
| 20260504025937 | 55 | 213 | 5.0 | 12.0 | 0.00 | 0.00 | 0.00 | 62 | 1008.5 |
| 20260504025503 | 55 | 213 | 5.0 | 13.0 | 0.00 | 0.00 | 0.00 | 62 | 1008.6 |
| 20260504025437 | 55 | 213 | 5.0 | 13.0 | 0.00 | 0.00 | 0.00 | 62 | 1008.6 |
| 20260504025004 | 55 | 209 | 5.0 | 13.0 | 0.00 | 0.00 | 0.00 | 62 | 1008.7 |
| 20260504024936 | 55 | 211 | 5.0 | 13.0 | 0.00 | 0.00 | 0.00 | 62 | 1008.7 |
| 20260504024503 | 55 | 213 | 4.0 | 9.0 | 0.00 | 0.00 | 0.00 | 62 | 1008.6 |
| 20260504024436 | 55 | 215 | 4.0 | 11.0 | 0.00 | 0.00 | 0.00 | 62 | 1008.6 |
| 20260504024003 | 54 | 211 | 4.0 | 11.0 | 0.00 | 0.00 | 0.00 | 62 | 1008.7 |
| 20260504023936 | 54 | 209 | 4.0 | 11.0 | 0.00 | 0.00 | 0.00 | 62 | 1008.8 |
| 20260504023504 | 54 | 204 | 3.0 | 11.0 | 0.00 | 0.00 | 0.00 | 62 | 1008.7 |
| 20260504023436 | 54 | 202 | 3.0 | 7.0 | 0.00 | 0.00 | 0.00 | 62 | 1008.7 |
| 20260504023024 | 55 | 214 | 3.0 | 7.0 | 0.00 | 0.00 | 0.00 | 62 | 1008.7 |
| 20260504022936 | 55 | 217 | 3.0 | 8.0 | 0.00 | 0.00 | 0.00 | 62 | 1008.7 |
| 20260504022504 | 55 | 219 | 4.0 | 8.0 | 0.00 | 0.00 | 0.00 | 62 | 1008.7 |
| 20260504022436 | 55 | 219 | 3.0 | 8.0 | 0.00 | 0.00 | 0.00 | 62 | 1008.7 |
| 20260504022003 | 55 | 213 | 4.0 | 8.0 | 0.00 | 0.00 | 0.00 | 61 | 1008.6 |
| 20260504021936 | 55 | 209 | 4.0 | 8.0 | 0.00 | 0.00 | 0.00 | 61 | 1008.6 |
| 20260504021503 | 55 | 206 | 4.0 | 11.0 | 0.00 | 0.00 | 0.00 | 61 | 1008.7 |
| 20260504021436 | 55 | 207 | 4.0 | 11.0 | 0.00 | 0.00 | 0.00 | 61 | 1008.7 |
| 20260504021004 | 55 | 213 | 4.0 | 11.0 | 0.00 | 0.00 | 0.00 | 61 | 1008.7 |
| 20260504020936 | 55 | 213 | 4.0 | 11.0 | 0.00 | 0.00 | 0.00 | 61 | 1008.7 |
| 20260504020503 | 55 | 227 | 4.0 | 11.0 | 0.00 | 0.00 | 0.00 | 61 | 1008.7 |
| 20260504020436 | 55 | 223 | 4.0 | 11.0 | 0.00 | 0.00 | 0.00 | 61 | 1008.8 |
| 20260504020003 | 56 | 219 | 5.0 | 11.0 | 0.00 | 0.00 | 0.00 | 60 | 1008.7 |
| 20260504015936 | 56 | 222 | 5.0 | 11.0 | 0.00 | 0.00 | 0.00 | 60 | 1008.8 |
| 20260504015504 | 56 | 212 | 5.0 | 11.0 | 0.00 | 0.00 | 0.00 | 60 | 1008.8 |
| 20260504015436 | 56 | 212 | 5.0 | 11.0 | 0.00 | 0.00 | 0.00 | 60 | 1008.8 |
| 20260504015003 | 56 | 216 | 5.0 | 17.0 | 0.00 | 0.00 | 0.00 | 59 | 1008.7 |
| 20260504014935 | 56 | 216 | 5.0 | 17.0 | 0.00 | 0.00 | 0.00 | 59 | 1008.7 |
| 20260504014503 | 56 | 218 | 5.0 | 17.0 | 0.00 | 0.00 | 0.00 | 59 | 1008.8 |
| 20260504014435 | 56 | 218 | 5.0 | 17.0 | 0.00 | 0.00 | 0.00 | 59 | 1008.8 |
| 20260504014003 | 56 | 216 | 5.0 | 12.0 | 0.00 | 0.00 | 0.00 | 59 | 1008.8 |
| 20260504013935 | 56 | 216 | 5.0 | 12.0 | 0.00 | 0.00 | 0.00 | 59 | 1008.8 |
| 20260504013504 | 56 | 220 | 5.0 | 12.0 | 0.00 | 0.00 | 0.00 | 58 | 1008.8 |
| 20260504013435 | 56 | 221 | 5.0 | 12.0 | 0.00 | 0.00 | 0.00 | 58 | 1008.8 |
| 20260504013025 | 57 | 221 | 4.0 | 10.0 | 0.00 | 0.00 | 0.00 | 58 | 1008.8 |
| 20260504012935 | 57 | 220 | 4.0 | 10.0 | 0.00 | 0.00 | 0.00 | 57 | 1008.8 |
| 20260504012503 | 57 | 217 | 5.0 | 13.0 | 0.00 | 0.00 | 0.00 | 57 | 1008.9 |
| 20260504012435 | 57 | 216 | 6.0 | 17.0 | 0.00 | 0.00 | 0.00 | 57 | 1008.9 |
| 20260504012003 | 57 | 214 | 7.0 | 17.0 | 0.00 | 0.00 | 0.00 | 56 | 1008.8 |
| 20260504011935 | 57 | 213 | 8.0 | 17.0 | 0.00 | 0.00 | 0.00 | 56 | 1008.8 |
| 20260504011503 | 57 | 212 | 7.0 | 17.0 | 0.00 | 0.00 | 0.00 | 55 | 1008.8 |
| 20260504011435 | 57 | 213 | 6.0 | 16.0 | 0.00 | 0.00 | 0.00 | 56 | 1008.9 |
| 20260504011003 | 58 | 216 | 6.0 | 16.0 | 0.00 | 0.00 | 0.00 | 55 | 1008.9 |
| 20260504010935 | 58 | 219 | 6.0 | 14.0 | 0.00 | 0.00 | 0.00 | 56 | 1008.8 |
| 20260504010503 | 58 | 219 | 7.0 | 19.0 | 0.00 | 0.00 | 0.00 | 56 | 1008.9 |
| 20260504010435 | 58 | 219 | 7.0 | 19.0 | 0.00 | 0.00 | 0.00 | 56 | 1008.8 |
| 20260504010003 | 58 | 220 | 8.0 | 19.0 | 0.00 | 0.00 | 0.00 | 55 | 1008.7 |
| 20260504005935 | 58 | 220 | 8.0 | 19.0 | 0.00 | 0.00 | 0.00 | 55 | 1008.8 |
| 20260504005524 | 59 | 223 | 7.0 | 20.0 | 0.00 | 0.00 | 0.00 | 56 | 1008.7 |
| 20260504005435 | 59 | 225 | 8.0 | 20.0 | 0.00 | 0.00 | 0.00 | 55 | 1008.6 |
| 20260504005004 | 59 | 226 | 8.0 | 20.0 | 0.00 | 0.00 | 0.00 | 55 | 1008.5 |
| 20260504004935 | 59 | 225 | 8.0 | 20.0 | 0.00 | 0.00 | 0.00 | 54 | 1008.4 |
| 20260504004503 | 60 | 230 | 9.0 | 24.0 | 0.00 | 0.00 | 0.00 | 54 | 1008.4 |
| 20260504004434 | 60 | 229 | 8.0 | 24.0 | 0.00 | 0.00 | 0.00 | 54 | 1008.7 |
| 20260504004003 | 60 | 232 | 7.0 | 24.0 | 0.00 | 0.00 | 0.00 | 53 | 1008.3 |
| 20260504003934 | 60 | 233 | 6.0 | 24.0 | 0.00 | 0.00 | 0.00 | 52 | 1008.3 |
| 20260504003501 | 60 | 233 | 5.0 | 14.0 | 0.00 | 0.00 | 0.00 | 51 | 1008.1 |
| 20260504003404 | 60 | 238 | 5.0 | 14.0 | 0.00 | 0.00 | 0.00 | 50 | 1008.2 |
| 20260504003001 | 61 | 234 | 6.0 | 14.0 | 0.00 | 0.00 | 0.00 | 50 | 1008.1 |
| 20260504002904 | 60 | 233 | 6.0 | 14.0 | 0.00 | 0.00 | 0.00 | 50 | 1008.1 |
| 20260504002501 | 61 | 230 | 7.0 | 14.0 | 0.00 | 0.00 | 0.00 | 50 | 1008.1 |
| 20260504002404 | 61 | 228 | 6.0 | 14.0 | 0.00 | 0.00 | 0.00 | 49 | 1008.1 |
| 20260504002001 | 61 | 230 | 6.0 | 14.0 | 0.00 | 0.00 | 0.00 | 49 | 1008.0 |
| 20260504001904 | 61 | 229 | 6.0 | 14.0 | 0.00 | 0.00 | 0.00 | 49 | 1008.0 |
| 20260504001522 | 61 | 227 | 6.0 | 14.0 | 0.00 | 0.00 | 0.00 | 49 | 1007.9 |
| 20260504001404 | 61 | 225 | 6.0 | 15.0 | 0.00 | 0.00 | 0.00 | 48 | 1007.9 |
| 20260504001001 | 61 | 220 | 6.0 | 15.0 | 0.00 | 0.00 | 0.00 | 48 | 1007.9 |
| 20260504000904 | 61 | 221 | 6.0 | 15.0 | 0.00 | 0.00 | 0.00 | 48 | 1007.9 |
| 20260504000522 | 61 | 218 | 6.0 | 15.0 | 0.00 | 0.00 | 0.00 | 48 | 1007.9 |
| 20260504000404 | 61 | 218 | 6.0 | 15.0 | 0.00 | 0.00 | 0.00 | 48 | 1007.9 |
| 20260504000001 | 61 | 222 | 6.0 | 17.0 | 0.00 | 0.00 | 0.00 | 47 | 1007.9 |
| 20260503235904 | 61 | 223 | 6.0 | 17.0 | 0.00 | 0.00 | 0.00 | 47 | 1007.9 |
| 20260503235502 | 61 | 229 | 6.0 | 18.0 | 0.00 | 0.00 | 0.00 | 48 | 1007.9 |
| 20260503235404 | 61 | 227 | 6.0 | 18.0 | 0.00 | 0.00 | 0.00 | 48 | 1007.8 |
| 20260503235022 | 61 | 225 | 6.0 | 18.0 | 0.00 | 0.00 | 0.00 | 48 | 1007.8 |
| 20260503234904 | 61 | 224 | 6.0 | 18.0 | 0.00 | 0.00 | 0.00 | 47 | 1007.8 |